053  
ASUS44 KLIX 171911  
RWRLIX  
NEW ORLEANS REGIONAL WEATHER ROUNDUP  
NATIONAL WEATHER SERVICE NEW ORLEANS LA  
200 PM CDT TUE SEP 17 2019  
 
NOTE: "FAIR" INDICATES FEW OR NO CLOUDS BELOW 12,000 FEET WITH NO  
SIGNIFICANT WEATHER AND/OR S TO VISIBILITY
.  
SKY/WX - SKY CONDITION AND SIGNIFICANT WEATHER.  
TMP - AIR TEMPERATURE. DP - DEWPOINT TEMPERATURE.  
RH - RELATIVE HUMIDITY. PRES - PRESSURE.  
HI - HEAT INDEX. WCI - WIND CHILL INDEX.  
 
* THESE STATIONS ARE NOT NWS OR FAA STATIONS AND ARE NOT UNDER  
NWS QUALITY CONTROL.  
 
LAZ038-040-048-061>063-065>067-069-172000-  
SOUTHEAST LOUISIANA  
 
CITY SKY/WX TMP DP RH WIND PRES REMARKS
 
N.O. INTL ARPT PTSUNNY 93 72 50 S10 30.00F HX 101  
N.O. LAKEFRONT FAIR 91 73 55 SE8 30.01F HX 99  
N.O. DOWNTOWN* FAIR 93 71 48 S10 30.02F HX 100  
RESERVE* FAIR 96 73 48 SW7G20 30.00F HX 105  
SLIDELL FAIR 92 71 50 SE7 30.00F HX 98  
BATON ROUGE FAIR 92 74 55 E8 29.99F HX 101  
BOOTHVILLE FAIR 87 76 69 E7 30.02F HX 97  
BELLE CHASSE PTSUNNY 89 77 67 E10 30.01F HX 101  
BOGALUSA* FAIR 95 68 41 SE6 30.01F HX 99  
GALLIANO* FAIR 86 76 70 SE6 30.02F HX 96  
NEW ROADS* FAIR 90 73 58 E10 30.00F HX 98  
GONZALES* FAIR 90 78 68 S13 29.99F HX 103  
HAMMOND* FAIR 91 70 49 SE8 30.01F HX 97  
HOUMA* PTSUNNY 86 77 74 S9 30.01S HX 97  
PORT FOURCHON* CLEAR 86 79 79 S9 30.02F HX 99  
 

 
 
MSZ070-080>082-172000-  
SOUTHERN MISSISSIPPI  
 
CITY SKY/WX TMP DP RH WIND PRES REMARKS
 
MCCOMB FAIR 94 68 42 S8 30.01F HX 98  
GULFPORT FAIR 94 67 41 S8 30.00F HX 97  
BILOXI FAIR 94 70 45 SW8 30.00F HX 99  
PASCAGOULA PTSUNNY 97 70 41 VRB6 29.99F HX 103  
STENNIS ARPT* MOSUNNY 93 68 43 SE7 30.00F HX 97  
 

 
 
COASTAL OBSERVATIONS  
LAKE AND NEARSHORE STATIONS  
 
STATION/POSITION TIME SKY/WX TEMP WIND PRES WAVE
 
AIR SEA DIR/SP/G HT/PER  
(UTC) (F) (DEG/KT/KT) (MB) (FT/S)  
WAVELAND YACHT 1830 86 85 180/ 7/ 11 1016.9  
GRAND ISLE 1830 83 100/ 6/ 8 N/A  
SOUTHWEST PASS 1830 110/ 8/ 10 N/A  
NEW CANAL 1830 90 86 360/ 2/ 12 1015.5  
SHELL BEACH 1830 86 87 100/ 7/ 10 1016.8  
 
OFFSHORE STATIONS  
 
STATION/POSITION TIME SKY/WX TEMP WIND PRES WAVE
 
AIR SEA DIR/SP/G HT/PER  
(UTC) (F) (DEG/KT/KT) (MB) (FT/S)  
64 S DAUPHIN ISL 1850 84 70/ 2/ 4 1016.7 1/ 5  
 

 
 
 
 
CLICK HERE TO GO TO PREVIOUS BULLETINS.

The Nexlab LA Page
The Nexlab MS Page Main Text Page